UAE31T VOBL-OMDB

Flight info

Callsign UAE31T
Flight time 3h 16m
Altitude 34000
Route OPAMO8A OPAMO P574 PAROK Q899 ITURA M762 VAXAS/N0462F240 M762 MIVEK P574 IMPED
Aircraft B77W/H-SDE2E3GHIJ1J3J4J5M1P2RWXYZ/LB1D1

Departure

Time 2026-04-23 18:07
Airport Kempegowda International Airport Bengaluru (VOBL)

Arrival

Time 2026-04-23 21:24
Airport Dubai International Airport (OMDB)
Time Latitude Longitude Altitude Speed Heading
2026-04-23 17:44 13.20091 77.71833 2973 ft 0 kts 180°
2026-04-23 17:50 13.20104 77.71833 2973 ft 4 kts 180°
2026-04-23 17:50 13.20154 77.71833 2973 ft 4 kts 163°
2026-04-23 17:50 13.20174 77.71820 2973 ft 4 kts 116°
2026-04-23 17:51 13.20181 77.71794 2973 ft 4 kts 91°
2026-04-23 17:51 13.20181 77.71768 2973 ft 2 kts 90°
2026-04-23 17:51 13.20181 77.71767 2973 ft 0 kts 90°
2026-04-23 17:55 13.20180 77.71792 2973 ft 5 kts 90°
2026-04-23 17:55 13.20180 77.71842 2973 ft 9 kts 90°
2026-04-23 17:55 13.20180 77.71917 2973 ft 12 kts 90°
2026-04-23 17:56 13.20179 77.72008 2973 ft 13 kts 91°
2026-04-23 17:56 13.20177 77.72192 2973 ft 13 kts 90°
2026-04-23 17:56 13.20176 77.72283 2973 ft 13 kts 90°
2026-04-23 17:57 13.20175 77.72371 2973 ft 10 kts 90°
2026-04-23 17:57 13.20167 77.72438 2973 ft 9 kts 126°
2026-04-23 17:57 13.19992 77.72445 2973 ft 20 kts 180°
2026-04-23 17:58 13.19829 77.72443 2973 ft 25 kts 181°
2026-04-23 17:58 13.19654 77.72441 2973 ft 25 kts 180°
2026-04-23 17:58 13.19479 77.72440 2973 ft 25 kts 180°
2026-04-23 17:58 13.19321 77.72438 2976 ft 18 kts 180°
2026-04-23 17:59 13.19225 77.72437 2975 ft 8 kts 184°
2026-04-23 17:59 13.19202 77.72391 2974 ft 8 kts 270°
2026-04-23 17:59 13.19202 77.72330 2975 ft 10 kts 269°
2026-04-23 17:59 13.19202 77.72240 2975 ft 16 kts 270°
2026-04-23 18:00 13.19204 77.72096 2972 ft 23 kts 270°
2026-04-23 18:00 13.19204 77.71932 2969 ft 23 kts 270°
2026-04-23 18:00 13.19206 77.71768 2971 ft 23 kts 270°
2026-04-23 18:00 13.19208 77.71604 2970 ft 23 kts 270°
2026-04-23 18:01 13.19209 77.71440 2971 ft 23 kts 270°
2026-04-23 18:01 13.19210 77.71276 2974 ft 23 kts 270°
2026-04-23 18:01 13.19211 77.71112 2974 ft 23 kts 270°
2026-04-23 18:01 13.19212 77.70958 2972 ft 18 kts 270°
2026-04-23 18:02 13.19199 77.70886 2972 ft 9 kts 222°
2026-04-23 18:02 13.19140 77.70865 2971 ft 9 kts 232°
2026-04-23 18:02 13.19131 77.70798 2972 ft 10 kts 268°
2026-04-23 18:02 13.19131 77.70719 2973 ft 13 kts 270°
2026-04-23 18:03 13.19133 77.70605 2971 ft 19 kts 271°
2026-04-23 18:03 13.19133 77.70451 2967 ft 23 kts 270°
2026-04-23 18:03 13.19134 77.70289 2968 ft 23 kts 270°
2026-04-23 18:03 13.19135 77.70128 2968 ft 23 kts 270°
2026-04-23 18:04 13.19136 77.69966 2967 ft 23 kts 271°
2026-04-23 18:04 13.19138 77.69805 2972 ft 23 kts 270°
2026-04-23 18:04 13.19140 77.69643 2976 ft 23 kts 271°
2026-04-23 18:04 13.19142 77.69482 2977 ft 23 kts 270°
2026-04-23 18:05 13.19141 77.69320 2982 ft 23 kts 270°
2026-04-23 18:05 13.19141 77.69162 2989 ft 19 kts 270°
2026-04-23 18:05 13.19142 77.69086 2989 ft 10 kts 270°
2026-04-23 18:05 13.19123 77.69024 2988 ft 10 kts 208°
2026-04-23 18:06 13.19054 77.69017 2988 ft 10 kts 182°
2026-04-23 18:06 13.18991 77.69019 2988 ft 7 kts 163°
2026-04-23 18:06 13.18975 77.69073 2986 ft 14 kts 93°
2026-04-23 18:06 13.18970 77.69336 2981 ft 70 kts 91°
2026-04-23 18:07 13.18964 77.70084 2972 ft 137 kts 90°
2026-04-23 18:07 13.18954 77.71256 2978 ft 187 kts 91°
2026-04-23 18:07 13.18938 77.72581 3599 ft 181 kts 92°
2026-04-23 18:07 13.18917 77.73897 4168 ft 185 kts 93°
2026-04-23 18:08 13.18888 77.75290 4375 ft 207 kts 93°
2026-04-23 18:08 13.18864 77.76847 4582 ft 231 kts 93°
2026-04-23 18:08 13.18850 77.78580 4800 ft 253 kts 92°
2026-04-23 18:08 13.18842 77.80412 5358 ft 260 kts 91°
2026-04-23 18:09 13.18834 77.82287 6029 ft 266 kts 90°
2026-04-23 18:09 13.18824 77.84196 6706 ft 270 kts 89°
2026-04-23 18:09 13.18811 77.86129 7398 ft 273 kts 89°
2026-04-23 18:09 13.18828 77.88072 8052 ft 273 kts 82°
2026-04-23 18:10 13.19450 77.89903 8592 ft 277 kts 55°
2026-04-23 18:10 13.20844 77.91261 9243 ft 281 kts 31°
2026-04-23 18:10 13.22676 77.91990 9743 ft 289 kts
2026-04-23 18:10 13.24689 77.92046 10134 ft 293 kts
2026-04-23 18:11 13.26753 77.92030 10609 ft 303 kts
2026-04-23 18:11 13.28930 77.92039 10849 ft 325 kts
2026-04-23 18:11 13.31268 77.92024 10934 ft 346 kts 356°
2026-04-23 18:11 13.33664 77.91357 11000 ft 372 kts 334°
2026-04-23 18:12 13.35918 77.89986 11008 ft 381 kts 330°
2026-04-23 18:12 13.38188 77.88570 11003 ft 384 kts 330°
2026-04-23 18:12 13.40479 77.87167 10996 ft 383 kts 331°
2026-04-23 18:12 13.42772 77.85782 10991 ft 383 kts 331°
2026-04-23 18:13 13.45065 77.84407 10987 ft 382 kts 331°
2026-04-23 18:13 13.47357 77.83038 10991 ft 382 kts 332°
2026-04-23 18:13 13.49651 77.81671 10982 ft 382 kts 332°
2026-04-23 18:13 13.51941 77.80305 10990 ft 381 kts 332°
2026-04-23 18:14 13.54221 77.78907 11175 ft 386 kts 329°
2026-04-23 18:14 13.56492 77.77422 11938 ft 388 kts 328°
2026-04-23 18:14 13.58751 77.75914 12904 ft 388 kts 328°
2026-04-23 18:14 13.61018 77.74397 13768 ft 392 kts 327°
2026-04-23 18:15 13.63316 77.72860 14438 ft 397 kts 327°
2026-04-23 18:15 13.65644 77.71310 15101 ft 403 kts 327°
2026-04-23 18:15 13.68010 77.69739 15744 ft 408 kts 327°
2026-04-23 18:15 13.70408 77.68150 16382 ft 414 kts 327°
2026-04-23 18:16 13.72836 77.66543 17047 ft 418 kts 327°
2026-04-23 18:16 13.75290 77.64918 17690 ft 423 kts 327°
2026-04-23 18:16 13.77773 77.63275 18283 ft 428 kts 326°
2026-04-23 18:17 13.82818 77.59937 19416 ft 435 kts 326°
2026-04-23 18:17 13.85366 77.58250 20000 ft 438 kts 326°
2026-04-23 18:17 13.87938 77.56546 20534 ft 442 kts 326°
2026-04-23 18:17 13.90529 77.54829 21112 ft 446 kts 325°
2026-04-23 18:18 13.93140 77.53100 21686 ft 449 kts 325°
2026-04-23 18:18 13.95748 77.51372 22617 ft 441 kts 324°
2026-04-23 18:18 13.98293 77.49689 23673 ft 433 kts 324°
2026-04-23 18:18 14.00826 77.48010 24289 ft 434 kts 323°
2026-04-23 18:19 14.03375 77.46317 24732 ft 440 kts 323°
2026-04-23 18:19 14.05956 77.44601 25159 ft 445 kts 323°
2026-04-23 18:19 14.08566 77.42867 25636 ft 449 kts 323°
2026-04-23 18:19 14.11198 77.41119 26139 ft 452 kts 322°
2026-04-23 18:20 14.13846 77.39360 26642 ft 455 kts 322°
2026-04-23 18:20 14.16513 77.37589 27129 ft 459 kts 322°
2026-04-23 18:20 14.19220 77.35788 27240 ft 471 kts 322°
2026-04-23 18:20 14.21999 77.33936 27338 ft 482 kts 322°
2026-04-23 18:21 14.24840 77.32045 27493 ft 491 kts 322°
2026-04-23 18:21 14.27720 77.30131 27780 ft 495 kts 322°
2026-04-23 18:21 14.30618 77.28208 28188 ft 497 kts 322°
2026-04-23 18:21 14.33520 77.26281 28604 ft 498 kts 322°
2026-04-23 18:22 14.36432 77.24344 28946 ft 501 kts 322°
2026-04-23 18:22 14.39359 77.22394 29244 ft 504 kts 322°
2026-04-23 18:22 14.42313 77.20425 29381 ft 510 kts 322°
2026-04-23 18:22 14.45300 77.18435 29631 ft 513 kts 322°
2026-04-23 18:23 14.48293 77.16442 29946 ft 514 kts 322°
2026-04-23 18:23 14.54296 77.12441 30557 ft 515 kts 321°
2026-04-23 18:24 14.59858 77.07985 30968 ft 500 kts 302°
2026-04-23 18:24 14.61603 77.04974 31167 ft 484 kts 289°
2026-04-23 18:24 14.63027 77.01818 31340 ft 488 kts 289°
2026-04-23 18:25 14.66071 76.95564 32007 ft 488 kts 291°
2026-04-23 18:25 14.67631 76.92470 32399 ft 486 kts 291°
2026-04-23 18:25 14.69196 76.89383 32754 ft 486 kts 291°
2026-04-23 18:25 14.70758 76.86299 33085 ft 485 kts 290°
2026-04-23 18:26 14.72317 76.83209 33339 ft 487 kts 290°
2026-04-23 18:26 14.73876 76.80110 33631 ft 487 kts 290°
2026-04-23 18:26 14.75432 76.77010 33851 ft 489 kts 290°
2026-04-23 18:27 14.78558 76.70771 33903 ft 489 kts 290°
2026-04-23 18:27 14.81659 76.64587 33924 ft 484 kts 290°
2026-04-23 18:28 14.84743 76.58422 33914 ft 484 kts 290°
2026-04-23 18:28 14.87824 76.52259 33918 ft 484 kts 290°
2026-04-23 18:29 14.90907 76.46087 33926 ft 484 kts 290°
2026-04-23 18:29 14.93993 76.39904 33925 ft 486 kts 290°
2026-04-23 18:30 14.97084 76.33706 33916 ft 486 kts 290°
2026-04-23 18:30 15.00179 76.27497 33919 ft 486 kts 290°
2026-04-23 18:31 15.03270 76.21291 33910 ft 487 kts 290°
2026-04-23 18:31 15.06361 76.15079 33912 ft 486 kts 290°
2026-04-23 18:32 15.09449 76.08868 33910 ft 486 kts 290°
2026-04-23 18:32 15.12533 76.02657 33910 ft 486 kts 290°
2026-04-23 18:33 15.15650 75.96466 33908 ft 487 kts 291°
2026-04-23 18:33 15.18886 75.90325 33911 ft 487 kts 291°
2026-04-23 18:34 15.22131 75.84198 33912 ft 486 kts 291°
2026-04-23 18:34 15.25356 75.78071 33908 ft 485 kts 290°
2026-04-23 18:35 15.28556 75.71959 33909 ft 483 kts 290°
2026-04-23 18:35 15.31741 75.65868 33911 ft 482 kts 290°
2026-04-23 18:36 15.34924 75.59770 33902 ft 482 kts 290°
2026-04-23 18:36 15.38102 75.53682 33909 ft 482 kts 290°
2026-04-23 18:37 15.41284 75.47582 33903 ft 482 kts 290°
2026-04-23 18:37 15.44462 75.41485 33910 ft 482 kts 290°
2026-04-23 18:38 15.47641 75.35382 33903 ft 482 kts 290°
2026-04-23 18:38 15.50820 75.29273 33919 ft 482 kts 290°
2026-04-23 18:39 15.53995 75.23169 33903 ft 481 kts 290°
2026-04-23 18:39 15.57155 75.17087 33899 ft 480 kts 290°
2026-04-23 18:40 15.60307 75.11015 33903 ft 479 kts 290°
2026-04-23 18:40 15.63452 75.04949 33894 ft 478 kts 290°
2026-04-23 18:41 15.66594 74.98886 33895 ft 478 kts 290°
2026-04-23 18:41 15.69735 74.92821 33901 ft 478 kts 290°
2026-04-23 18:42 15.72872 74.86754 33896 ft 478 kts 290°
2026-04-23 18:42 15.76013 74.80677 33896 ft 479 kts 290°
2026-04-23 18:43 15.79159 74.74586 33905 ft 480 kts 290°
2026-04-23 18:43 15.82304 74.68490 33911 ft 480 kts 289°
2026-04-23 18:44 15.85445 74.62398 33902 ft 480 kts 289°
2026-04-23 18:44 15.88496 74.56273 33901 ft 477 kts 288°
2026-04-23 18:45 15.91450 74.50133 33908 ft 476 kts 288°
2026-04-23 18:45 15.94402 74.44002 33905 ft 475 kts 288°
2026-04-23 18:46 15.97366 74.37879 33909 ft 475 kts 288°
2026-04-23 18:46 16.00334 74.31754 33909 ft 475 kts 288°
2026-04-23 18:47 16.03301 74.25628 33917 ft 476 kts 288°
2026-04-23 18:47 16.06269 74.19493 33910 ft 476 kts 288°
2026-04-23 18:48 16.09234 74.13354 33913 ft 476 kts 288°
2026-04-23 18:48 16.12198 74.07217 33902 ft 476 kts 288°
2026-04-23 18:49 16.15155 74.01086 33891 ft 474 kts 288°
2026-04-23 18:49 16.18101 73.94969 33891 ft 474 kts 288°
2026-04-23 18:50 16.20556 73.89871 33880 ft 474 kts 288°
2026-04-23 18:50 16.24011 73.82726 33882 ft 475 kts 288°
2026-04-23 18:51 16.26971 73.76598 33859 ft 476 kts 288°
2026-04-23 18:51 16.29939 73.70447 33862 ft 476 kts 288°
2026-04-23 18:52 16.32903 73.64297 33853 ft 477 kts 288°
2026-04-23 18:52 16.35868 73.58140 33846 ft 477 kts 288°
2026-04-23 18:53 16.38864 73.51991 33855 ft 478 kts 289°
2026-04-23 18:53 16.41927 73.45854 33837 ft 479 kts 289°
2026-04-23 18:54 16.44995 73.39703 33826 ft 480 kts 289°
2026-04-23 18:54 16.48051 73.33545 33833 ft 480 kts 289°
2026-04-23 18:55 16.51104 73.27380 33824 ft 480 kts 289°
2026-04-23 18:55 16.54158 73.21208 33824 ft 480 kts 289°
2026-04-23 18:56 16.57211 73.15032 33819 ft 480 kts 289°
2026-04-23 18:56 16.60257 73.08847 33810 ft 480 kts 289°
2026-04-23 18:57 16.63220 73.02636 33816 ft 479 kts 288°
2026-04-23 18:57 16.66162 72.96407 33817 ft 480 kts 288°
2026-04-23 18:58 16.69111 72.90180 33826 ft 480 kts 290°
2026-04-23 18:58 16.72070 72.83938 33820 ft 481 kts 290°
2026-04-23 18:59 16.75032 72.77692 33814 ft 482 kts 290°
2026-04-23 18:59 16.77996 72.71437 33814 ft 482 kts 290°
2026-04-23 19:00 16.80959 72.65177 33814 ft 482 kts 290°
2026-04-23 19:00 16.83920 72.58915 33819 ft 482 kts 290°
2026-04-23 19:01 16.86878 72.52651 33823 ft 482 kts 290°
2026-04-23 19:01 16.89837 72.46379 33819 ft 483 kts 290°
2026-04-23 19:02 16.92797 72.40099 33816 ft 483 kts 290°
2026-04-23 19:02 16.95758 72.33813 33833 ft 483 kts 290°
2026-04-23 19:03 16.98715 72.27527 33822 ft 483 kts 291°
2026-04-23 19:03 17.01670 72.21241 33814 ft 483 kts 291°
2026-04-23 19:04 17.04623 72.14949 33820 ft 483 kts 291°
2026-04-23 19:04 17.07574 72.08658 33823 ft 483 kts 291°
2026-04-23 19:05 17.10537 72.02372 33820 ft 483 kts 292°
2026-04-23 19:05 17.13555 71.96111 33822 ft 483 kts 292°
2026-04-23 19:06 17.16582 71.89846 33823 ft 484 kts 293°
2026-04-23 19:06 17.19599 71.83572 33824 ft 484 kts 293°
2026-04-23 19:07 17.22616 71.77281 33826 ft 485 kts 293°
2026-04-23 19:07 17.25635 71.70976 33835 ft 486 kts 294°
2026-04-23 19:08 17.28662 71.64657 33821 ft 487 kts 294°
2026-04-23 19:08 17.31688 71.58330 33831 ft 487 kts 294°
2026-04-23 19:09 17.34712 71.52001 33823 ft 487 kts 294°
2026-04-23 19:09 17.37740 71.45663 33827 ft 488 kts 294°
2026-04-23 19:10 17.40771 71.39331 33826 ft 488 kts 294°
2026-04-23 19:10 17.43802 71.32993 33826 ft 487 kts 294°
2026-04-23 19:11 17.46828 71.26656 33824 ft 487 kts 294°
2026-04-23 19:11 17.49850 71.20318 33825 ft 487 kts 294°
2026-04-23 19:12 17.52870 71.13979 33835 ft 487 kts 294°
2026-04-23 19:12 17.55889 71.07636 33829 ft 488 kts 294°
2026-04-23 19:13 17.58908 71.01287 33824 ft 487 kts 294°
2026-04-23 19:13 17.61921 70.94944 33831 ft 487 kts 294°
2026-04-23 19:14 17.64932 70.88597 33836 ft 487 kts 294°
2026-04-23 19:14 17.67943 70.82245 33824 ft 487 kts 294°
2026-04-23 19:15 17.70952 70.75891 33829 ft 488 kts 294°
2026-04-23 19:15 17.73961 70.69530 33831 ft 488 kts 294°
2026-04-23 19:16 17.76969 70.63164 33832 ft 488 kts 294°
2026-04-23 19:16 17.79978 70.56791 33835 ft 488 kts 294°
2026-04-23 19:17 17.84478 70.47221 33834 ft 489 kts 294°
2026-04-23 19:17 17.87473 70.40835 33837 ft 489 kts 294°
2026-04-23 19:18 17.90468 70.34447 33835 ft 489 kts 294°
2026-04-23 19:18 17.93461 70.28055 33836 ft 489 kts 294°
2026-04-23 19:19 17.97948 70.18464 33840 ft 489 kts 294°
2026-04-23 19:20 18.02431 70.08865 33846 ft 489 kts 294°
2026-04-23 19:20 18.05421 70.02454 33844 ft 489 kts 294°
2026-04-23 19:21 18.09898 69.92843 33846 ft 489 kts 294°
2026-04-23 19:22 18.12876 69.86439 33854 ft 489 kts 294°
2026-04-23 19:22 18.17348 69.76814 33847 ft 489 kts 294°
2026-04-23 19:23 18.20325 69.70396 33852 ft 490 kts 294°
2026-04-23 19:24 18.24795 69.60750 33856 ft 490 kts 294°
2026-04-23 19:24 18.29257 69.51103 33856 ft 490 kts 294°
2026-04-23 19:25 18.35211 69.38208 33853 ft 491 kts 295°
2026-04-23 19:26 18.39686 69.28531 33853 ft 491 kts 295°
2026-04-23 19:27 18.47837 69.12765 33866 ft 492 kts 297°
2026-04-23 19:28 18.54340 69.00100 33872 ft 493 kts 296°
2026-04-23 19:29 18.59202 68.90575 33860 ft 493 kts 297°
2026-04-23 19:30 18.64063 68.81046 33869 ft 493 kts 297°
2026-04-23 19:31 18.68924 68.71505 33871 ft 493 kts 296°
2026-04-23 19:31 18.72159 68.65144 33869 ft 493 kts 297°
2026-04-23 19:32 18.75393 68.58780 33871 ft 493 kts 297°
2026-04-23 19:32 18.78625 68.52414 33867 ft 493 kts 297°
2026-04-23 19:33 18.81855 68.46046 33872 ft 493 kts 297°
2026-04-23 19:33 18.86696 68.36484 33871 ft 493 kts 297°
2026-04-23 19:34 18.89919 68.30113 33872 ft 493 kts 296°
2026-04-23 19:35 18.94745 68.20558 33871 ft 492 kts 296°
2026-04-23 19:35 18.97959 68.14186 33871 ft 492 kts 297°
2026-04-23 19:36 19.01170 68.07813 33878 ft 493 kts 297°
2026-04-23 19:36 19.04382 68.01431 33875 ft 493 kts 297°
2026-04-23 19:37 19.07623 67.95059 33873 ft 493 kts 297°
2026-04-23 19:37 19.10905 67.88711 33877 ft 493 kts 297°
2026-04-23 19:38 19.14188 67.82360 33872 ft 493 kts 298°
2026-04-23 19:38 19.17459 67.76008 33875 ft 493 kts 298°
2026-04-23 19:39 19.20724 67.69651 33875 ft 493 kts 297°
2026-04-23 19:39 19.23983 67.63294 33872 ft 492 kts 297°
2026-04-23 19:40 19.27238 67.56941 33875 ft 492 kts 297°
2026-04-23 19:40 19.30496 67.50576 33876 ft 493 kts 298°
2026-04-23 19:41 19.33751 67.44211 33885 ft 493 kts 297°
2026-04-23 19:41 19.37010 67.37831 33878 ft 494 kts 298°
2026-04-23 19:42 19.40266 67.31449 33879 ft 494 kts 298°
2026-04-23 19:42 19.43522 67.25061 33879 ft 494 kts 298°
2026-04-23 19:43 19.46778 67.18667 33875 ft 494 kts 298°
2026-04-23 19:43 19.50030 67.12272 33879 ft 494 kts 297°
2026-04-23 19:44 19.53282 67.05871 33877 ft 494 kts 298°
2026-04-23 19:44 19.56530 66.99469 33880 ft 494 kts 297°
2026-04-23 19:45 19.59779 66.93061 33887 ft 494 kts 298°
2026-04-23 19:45 19.63023 66.86651 33881 ft 494 kts 298°
2026-04-23 19:46 19.66268 66.80236 33880 ft 494 kts 298°
2026-04-23 19:46 19.69511 66.73819 33883 ft 494 kts 298°
2026-04-23 19:47 19.72752 66.67397 33885 ft 494 kts 298°
2026-04-23 19:47 19.75987 66.60979 33882 ft 494 kts 298°
2026-04-23 19:48 19.79223 66.54552 33878 ft 494 kts 298°
2026-04-23 19:48 19.82453 66.48130 33882 ft 494 kts 298°
2026-04-23 19:49 19.85683 66.41701 33886 ft 494 kts 299°
2026-04-23 19:49 19.88908 66.35277 33883 ft 494 kts 298°
2026-04-23 19:50 19.92130 66.28848 33885 ft 494 kts 298°
2026-04-23 19:50 19.95349 66.22419 33876 ft 493 kts 299°
2026-04-23 19:51 19.98561 66.15997 33882 ft 493 kts 299°
2026-04-23 19:51 20.01769 66.09575 33880 ft 492 kts 298°
2026-04-23 19:52 20.04971 66.03160 33882 ft 492 kts 298°
2026-04-23 19:52 20.08170 65.96742 33877 ft 492 kts 299°
2026-04-23 19:53 20.11367 65.90321 33872 ft 491 kts 299°
2026-04-23 19:53 20.14542 65.83936 33878 ft 491 kts 299°
2026-04-23 19:54 20.17734 65.77512 33882 ft 490 kts 299°
2026-04-23 19:54 20.20909 65.71114 33879 ft 490 kts 299°
2026-04-23 19:55 20.24082 65.64711 33882 ft 490 kts 299°
2026-04-23 19:55 20.27249 65.58313 33874 ft 489 kts 300°
2026-04-23 19:56 20.30413 65.51916 33874 ft 489 kts 300°
2026-04-23 19:56 20.33575 65.45514 33878 ft 489 kts 300°
2026-04-23 19:57 20.36736 65.39107 33876 ft 489 kts 299°
2026-04-23 19:57 20.39895 65.32698 33880 ft 489 kts 299°
2026-04-23 19:58 20.43050 65.26288 33887 ft 489 kts 300°
2026-04-23 19:58 20.46200 65.19880 33885 ft 489 kts 300°
2026-04-23 19:59 20.49343 65.13479 33866 ft 488 kts 300°
2026-04-23 19:59 20.52482 65.07080 33878 ft 488 kts 300°
2026-04-23 20:00 20.55617 65.00681 33885 ft 488 kts 300°
2026-04-23 20:00 20.58780 64.94301 33885 ft 487 kts 300°
2026-04-23 20:01 20.61973 64.87935 33884 ft 488 kts 300°
2026-04-23 20:01 20.65167 64.81559 33871 ft 488 kts 300°
2026-04-23 20:02 20.68353 64.75176 33868 ft 488 kts 300°
2026-04-23 20:02 20.71532 64.68791 33881 ft 488 kts 300°
2026-04-23 20:03 20.74713 64.62394 33878 ft 488 kts 300°
2026-04-23 20:03 20.77890 64.55998 33861 ft 489 kts 300°
2026-04-23 20:04 20.81069 64.49592 33881 ft 489 kts 300°
2026-04-23 20:04 20.84247 64.43181 33860 ft 489 kts 300°
2026-04-23 20:05 20.87425 64.36762 33873 ft 490 kts 300°
2026-04-23 20:05 20.90601 64.30339 33867 ft 489 kts 300°
2026-04-23 20:06 20.93772 64.23917 33869 ft 489 kts 300°
2026-04-23 20:06 20.96938 64.17500 33872 ft 489 kts 300°
2026-04-23 20:07 21.00101 64.11081 33873 ft 488 kts 299°
2026-04-23 20:07 21.03260 64.04662 33865 ft 489 kts 300°
2026-04-23 20:08 21.06416 63.98241 33866 ft 488 kts 300°
2026-04-23 20:08 21.09564 63.91831 33870 ft 487 kts 299°
2026-04-23 20:09 21.12708 63.85419 33872 ft 487 kts 299°
2026-04-23 20:09 21.15843 63.79017 33868 ft 486 kts 299°
2026-04-23 20:10 21.18978 63.72610 33864 ft 486 kts 299°
2026-04-23 20:10 21.22105 63.66211 33868 ft 486 kts 299°
2026-04-23 20:11 21.25227 63.59813 33871 ft 485 kts 299°
2026-04-23 20:11 21.28346 63.53417 33869 ft 485 kts 299°
2026-04-23 20:12 21.31458 63.47024 33866 ft 485 kts 299°
2026-04-23 20:12 21.34568 63.40631 33861 ft 484 kts 299°
2026-04-23 20:13 21.37675 63.34233 33869 ft 484 kts 299°
2026-04-23 20:13 21.40781 63.27831 33866 ft 485 kts 299°
2026-04-23 20:14 21.43886 63.21424 33868 ft 485 kts 299°
2026-04-23 20:14 21.46990 63.15009 33867 ft 485 kts 299°
2026-04-23 20:15 21.50093 63.08591 33862 ft 486 kts 299°
2026-04-23 20:15 21.53194 63.02167 33867 ft 486 kts 298°
2026-04-23 20:16 21.56295 62.95736 33866 ft 486 kts 298°
2026-04-23 20:16 21.59396 62.89296 33862 ft 486 kts 298°
2026-04-23 20:17 21.62493 62.82857 33859 ft 486 kts 298°
2026-04-23 20:17 21.65588 62.76416 33860 ft 486 kts 298°
2026-04-23 20:18 21.68679 62.69973 33862 ft 486 kts 298°
2026-04-23 20:18 21.71775 62.63513 33858 ft 487 kts 298°
2026-04-23 20:19 21.74869 62.57049 33859 ft 487 kts 298°
2026-04-23 20:19 21.77963 62.50576 33852 ft 487 kts 298°
2026-04-23 20:20 21.81050 62.44110 33855 ft 486 kts 298°
2026-04-23 20:20 21.84129 62.37644 33857 ft 486 kts 297°
2026-04-23 20:21 21.86947 62.31051 33857 ft 486 kts 295°
2026-04-23 20:21 21.89664 62.24399 33852 ft 486 kts 295°
2026-04-23 20:22 21.92382 62.17749 33856 ft 486 kts 294°
2026-04-23 20:22 21.95114 62.11109 33848 ft 485 kts 295°
2026-04-23 20:23 21.97842 62.04488 33851 ft 484 kts 294°
2026-04-23 20:23 22.00564 61.97880 33851 ft 483 kts 294°
2026-04-23 20:24 22.03282 61.91270 33855 ft 483 kts 295°
2026-04-23 20:24 22.05997 61.84655 33849 ft 483 kts 295°
2026-04-23 20:25 22.08708 61.78041 33853 ft 483 kts 294°
2026-04-23 20:25 22.11415 61.71428 33844 ft 483 kts 294°
2026-04-23 20:26 22.14120 61.64810 33844 ft 483 kts 294°
2026-04-23 20:26 22.16822 61.58189 33845 ft 483 kts 294°
2026-04-23 20:27 22.19520 61.51570 33842 ft 483 kts 294°
2026-04-23 20:27 22.22218 61.44945 33847 ft 483 kts 294°
2026-04-23 20:28 22.24912 61.38316 33846 ft 483 kts 294°
2026-04-23 20:28 22.27603 61.31688 33842 ft 483 kts 294°
2026-04-23 20:29 22.30292 61.25055 33841 ft 483 kts 294°
2026-04-23 20:29 22.32979 61.18416 33839 ft 483 kts 294°
2026-04-23 20:30 22.35661 61.11783 33841 ft 483 kts 294°
2026-04-23 20:30 22.39678 61.01829 33839 ft 483 kts 294°
2026-04-23 20:31 22.42348 60.95202 33837 ft 481 kts 294°
2026-04-23 20:31 22.45009 60.88587 33833 ft 480 kts 294°
2026-04-23 20:32 22.47660 60.81988 33833 ft 479 kts 294°
2026-04-23 20:32 22.50304 60.75395 33838 ft 479 kts 294°
2026-04-23 20:33 22.52939 60.68818 33835 ft 476 kts 294°
2026-04-23 20:33 22.55557 60.62273 33833 ft 474 kts 294°
2026-04-23 20:34 22.58161 60.55755 33832 ft 472 kts 294°
2026-04-23 20:34 22.60759 60.49249 33829 ft 471 kts 294°
2026-04-23 20:35 22.63353 60.42755 33837 ft 471 kts 294°
2026-04-23 20:35 22.65940 60.36266 33834 ft 470 kts 294°
2026-04-23 20:36 22.68525 60.29771 33826 ft 471 kts 293°
2026-04-23 20:36 22.71109 60.23270 33829 ft 471 kts 293°
2026-04-23 20:37 22.73691 60.16763 33825 ft 471 kts 293°
2026-04-23 20:37 22.76271 60.10254 33828 ft 471 kts 293°
2026-04-23 20:38 22.78844 60.03751 33826 ft 471 kts 293°
2026-04-23 20:38 22.81415 59.97243 33827 ft 470 kts 293°
2026-04-23 20:39 22.83980 59.90745 33833 ft 470 kts 293°
2026-04-23 20:39 22.86544 59.84237 33833 ft 470 kts 293°
2026-04-23 20:40 22.89100 59.77732 33823 ft 470 kts 293°
2026-04-23 20:40 22.91650 59.71230 33824 ft 469 kts 293°
2026-04-23 20:41 22.94196 59.64730 33822 ft 469 kts 293°
2026-04-23 20:41 22.96740 59.58228 33828 ft 469 kts 293°
2026-04-23 20:42 22.99277 59.51732 33827 ft 468 kts 293°
2026-04-23 20:42 23.01810 59.45238 33834 ft 468 kts 292°
2026-04-23 20:43 23.04340 59.38742 33837 ft 468 kts 292°
2026-04-23 20:43 23.06864 59.32235 33839 ft 468 kts 292°
2026-04-23 20:44 23.09370 59.25738 33845 ft 467 kts 292°
2026-04-23 20:44 23.11869 59.19247 33835 ft 466 kts 292°
2026-04-23 20:45 23.14363 59.12768 33858 ft 465 kts 292°
2026-04-23 20:45 23.16848 59.06294 33837 ft 465 kts 292°
2026-04-23 20:46 23.18788 58.99625 33858 ft 464 kts 285°
2026-04-23 20:46 23.20399 58.92852 33861 ft 463 kts 285°
2026-04-23 20:47 23.22020 58.86095 33850 ft 463 kts 285°
2026-04-23 20:47 23.23656 58.79340 33862 ft 462 kts 285°
2026-04-23 20:48 23.25294 58.72595 33859 ft 462 kts 285°
2026-04-23 20:48 23.26928 58.65850 33864 ft 462 kts 285°
2026-04-23 20:49 23.28560 58.59097 33852 ft 463 kts 285°
2026-04-23 20:49 23.30191 58.52334 33867 ft 463 kts 285°
2026-04-23 20:50 23.31819 58.45571 33879 ft 463 kts 285°
2026-04-23 20:50 23.33444 58.38805 33862 ft 463 kts 285°
2026-04-23 20:51 23.35065 58.32039 33855 ft 463 kts 284°
2026-04-23 20:51 23.36679 58.25290 33855 ft 462 kts 284°
2026-04-23 20:52 23.38292 58.18535 33854 ft 461 kts 285°
2026-04-23 20:52 23.40537 58.12027 33873 ft 461 kts 295°
2026-04-23 20:53 23.43749 58.06003 33868 ft 462 kts 304°
2026-04-23 20:53 23.47502 58.00338 33883 ft 463 kts 304°
2026-04-23 20:54 23.51267 57.94657 33858 ft 464 kts 304°
2026-04-23 20:54 23.55004 57.88940 33878 ft 464 kts 304°
2026-04-23 20:55 23.58732 57.83216 33858 ft 464 kts 304°
2026-04-23 20:55 23.62612 57.77606 33868 ft 465 kts 307°
2026-04-23 20:56 23.66626 57.72104 33855 ft 465 kts 307°
2026-04-23 20:56 23.70614 57.66565 33858 ft 465 kts 306°
2026-04-23 20:57 23.74573 57.61011 33852 ft 464 kts 306°
2026-04-23 20:57 23.78530 57.55456 33851 ft 464 kts 306°
2026-04-23 20:58 23.82487 57.49909 33843 ft 464 kts 306°
2026-04-23 20:58 23.86438 57.44363 33853 ft 463 kts 306°
2026-04-23 20:59 23.90386 57.38813 33844 ft 463 kts 306°
2026-04-23 20:59 23.94329 57.33263 33859 ft 463 kts 306°
2026-04-23 21:00 23.98270 57.27709 33842 ft 463 kts 306°
2026-04-23 21:00 24.02209 57.22152 33850 ft 463 kts 306°
2026-04-23 21:01 24.06148 57.16589 33844 ft 463 kts 306°
2026-04-23 21:01 24.10088 57.11018 33839 ft 464 kts 306°
2026-04-23 21:02 24.14023 57.05447 33850 ft 464 kts 306°
2026-04-23 21:02 24.17968 56.99854 33292 ft 472 kts 306°
2026-04-23 21:03 24.19986 56.96991 32408 ft 476 kts 306°
2026-04-23 21:03 24.22005 56.94126 31465 ft 476 kts 306°
2026-04-23 21:03 24.24021 56.91260 30563 ft 475 kts 306°
2026-04-23 21:03 24.26014 56.88418 29918 ft 469 kts 306°
2026-04-23 21:04 24.27988 56.85601 29114 ft 464 kts 306°
2026-04-23 21:04 24.29936 56.82820 28408 ft 458 kts 306°
2026-04-23 21:04 24.31861 56.80070 27765 ft 453 kts 306°
2026-04-23 21:04 24.33762 56.77350 27122 ft 448 kts 306°
2026-04-23 21:05 24.35644 56.74658 26491 ft 443 kts 305°
2026-04-23 21:05 24.37506 56.71993 25873 ft 440 kts 305°
2026-04-23 21:05 24.39356 56.69343 25258 ft 436 kts 305°
2026-04-23 21:05 24.41191 56.66714 24651 ft 434 kts 305°
2026-04-23 21:06 24.43032 56.64113 24067 ft 432 kts 307°
2026-04-23 21:06 24.45087 56.61701 23507 ft 437 kts 314°
2026-04-23 21:06 24.47299 56.59412 23065 ft 438 kts 314°
2026-04-23 21:06 24.49513 56.57132 22793 ft 433 kts 314°
2026-04-23 21:07 24.51679 56.54895 22457 ft 424 kts 314°
2026-04-23 21:07 24.53808 56.52683 21922 ft 421 kts 314°
2026-04-23 21:07 24.55905 56.50493 21604 ft 412 kts 314°
2026-04-23 21:07 24.57953 56.48347 21221 ft 405 kts 314°
2026-04-23 21:08 24.59980 56.46217 20645 ft 404 kts 314°
2026-04-23 21:08 24.62002 56.44090 20020 ft 404 kts 314°
2026-04-23 21:08 24.64032 56.41952 19370 ft 405 kts 314°
2026-04-23 21:08 24.66060 56.39815 18774 ft 405 kts 314°
2026-04-23 21:09 24.68081 56.37687 18250 ft 402 kts 314°
2026-04-23 21:09 24.70087 56.35574 17721 ft 398 kts 314°
2026-04-23 21:09 24.72073 56.33482 17156 ft 395 kts 314°
2026-04-23 21:09 24.74045 56.31402 16591 ft 392 kts 314°
2026-04-23 21:10 24.76006 56.29334 16054 ft 390 kts 314°
2026-04-23 21:10 24.77950 56.27282 15512 ft 387 kts 314°
2026-04-23 21:10 24.79884 56.25239 14958 ft 386 kts 314°
2026-04-23 21:10 24.81816 56.23198 14409 ft 385 kts 314°
2026-04-23 21:11 24.83739 56.21166 13889 ft 384 kts 313°
2026-04-23 21:11 24.85656 56.19137 13319 ft 382 kts 314°
2026-04-23 21:11 24.87566 56.17116 12744 ft 381 kts 314°
2026-04-23 21:11 24.89471 56.15100 12202 ft 379 kts 314°
2026-04-23 21:12 24.91363 56.13095 11665 ft 377 kts 314°
2026-04-23 21:12 24.93247 56.11099 11140 ft 376 kts 314°
2026-04-23 21:12 24.95123 56.09113 10673 ft 373 kts 314°
2026-04-23 21:12 24.96979 56.07145 10237 ft 370 kts 314°
2026-04-23 21:13 24.98748 56.05157 10042 ft 358 kts 310°
2026-04-23 21:13 25.00372 56.03157 9956 ft 342 kts 307°
2026-04-23 21:13 25.01641 56.01017 9856 ft 326 kts 292°
2026-04-23 21:13 25.02397 55.98755 9736 ft 305 kts 283°
2026-04-23 21:14 25.02914 55.96553 9440 ft 291 kts 282°
2026-04-23 21:14 25.03386 55.94418 8987 ft 285 kts 281°
2026-04-23 21:14 25.03848 55.92300 8550 ft 282 kts 282°
2026-04-23 21:14 25.04302 55.90219 8048 ft 279 kts 282°
2026-04-23 21:15 25.04756 55.88149 7508 ft 278 kts 282°
2026-04-23 21:15 25.05211 55.86087 6987 ft 276 kts 282°
2026-04-23 21:15 25.05667 55.84022 6576 ft 279 kts 283°
2026-04-23 21:15 25.06124 55.81963 6335 ft 275 kts 283°
2026-04-23 21:16 25.06576 55.79929 6051 ft 273 kts 283°
2026-04-23 21:16 25.07027 55.77901 5715 ft 273 kts 283°
2026-04-23 21:16 25.07478 55.75871 5390 ft 273 kts 283°
2026-04-23 21:16 25.07927 55.73844 5104 ft 272 kts 283°
2026-04-23 21:17 25.08376 55.71826 4790 ft 271 kts 283°
2026-04-23 21:17 25.08822 55.69813 4461 ft 271 kts 284°
2026-04-23 21:17 25.09268 55.67803 4235 ft 267 kts 284°
2026-04-23 21:17 25.09699 55.65859 4145 ft 257 kts 284°
2026-04-23 21:18 25.10154 55.64000 3973 ft 248 kts 292°
2026-04-23 21:18 25.10912 55.62341 3825 ft 237 kts 301°
2026-04-23 21:18 25.11759 55.60825 3692 ft 228 kts 302°
2026-04-23 21:18 25.12579 55.59372 3560 ft 218 kts 302°
2026-04-23 21:19 25.13346 55.57997 3465 ft 205 kts 302°
2026-04-23 21:19 25.14080 55.56678 3238 ft 201 kts 302°
2026-04-23 21:19 25.14807 55.55366 2908 ft 201 kts 302°
2026-04-23 21:19 25.15538 55.54048 2579 ft 201 kts 302°
2026-04-23 21:20 25.16258 55.52746 2249 ft 196 kts 302°
2026-04-23 21:20 25.16950 55.51495 1976 ft 182 kts 303°
2026-04-23 21:20 25.17597 55.50326 1974 ft 175 kts 303°
2026-04-23 21:20 25.18215 55.49212 1987 ft 167 kts 303°
2026-04-23 21:21 25.18836 55.48091 1740 ft 172 kts 303°
2026-04-23 21:21 25.19452 55.46984 1515 ft 167 kts 304°
2026-04-23 21:21 25.20051 55.45905 1317 ft 165 kts 303°
2026-04-23 21:21 25.20648 55.44824 1106 ft 164 kts 303°
2026-04-23 21:22 25.21232 55.43768 903 ft 158 kts 303°
2026-04-23 21:22 25.21798 55.42744 685 ft 157 kts 302°
2026-04-23 21:22 25.22361 55.41732 518 ft 155 kts 302°
2026-04-23 21:22 25.22920 55.40709 295 ft 155 kts 303°
2026-04-23 21:23 25.23479 55.39700 113 ft 155 kts 302°
2026-04-23 21:23 25.24032 55.38695 30 ft 146 kts 303°
2026-04-23 21:23 25.24484 55.37880 29 ft 99 kts 301°
2026-04-23 21:23 25.24753 55.37395 28 ft 59 kts 302°
2026-04-23 21:24 25.24908 55.37114 29 ft 33 kts 299°
2026-04-23 21:24 25.25003 55.36892 29 ft 31 kts 285°
2026-04-23 21:24 25.25020 55.36705 27 ft 14 kts 272°
2026-04-23 21:24 25.25024 55.36598 26 ft 14 kts 272°
2026-04-23 21:25 25.25028 55.36490 26 ft 14 kts 275°
2026-04-23 21:25 25.25056 55.36387 29 ft 14 kts 294°
2026-04-23 21:25 25.25102 55.36292 26 ft 14 kts 301°
2026-04-23 21:25 25.25154 55.36198 26 ft 16 kts 301°
2026-04-23 21:26 25.25221 55.36085 29 ft 20 kts 303°
2026-04-23 21:26 25.25298 55.35946 28 ft 23 kts 301°
2026-04-23 21:26 25.25389 55.35783 27 ft 27 kts 302°
2026-04-23 21:26 25.25480 55.35620 31 ft 15 kts 301°
2026-04-23 21:27 25.25538 55.35515 29 ft 18 kts 302°
2026-04-23 21:27 25.25595 55.35415 30 ft 4 kts 302°
2026-04-23 21:27 25.25590 55.35384 28 ft 6 kts 221°
2026-04-23 21:27 25.25550 55.35348 30 ft 8 kts 216°
2026-04-23 21:28 25.25501 55.35313 28 ft 9 kts 212°
2026-04-23 21:28 25.25460 55.35284 32 ft 3 kts 211°
2026-04-23 21:28 25.25452 55.35279 30 ft 1 kts 211°
2026-04-23 21:28 25.25451 55.35278 30 ft 0 kts 211°